Location: Freistadt
(48.5112°N, 14.5013°E)
Time: 10:10:16
(UTC+02:00)

MOZHAYETS 4 - Pass Details

Date: 29 March 2023
Orbit: 657 x 675 km, 98.2° (Epoch: 03 June)

Event Time Altitude Azimuth Distance (km) Brightness Sun altitude
Exits shadow 04:54:03 13° 305° (NW) 1,872 9.8 -18.7°
Drops below altitude 10° 04:54:53 10° 314° (NW) 2,083 10.1 -18.5°
Sets 04:57:44 0° 333° (NNW) 3,004 11.1 -18.1°
